This is the latest recevied weather packets stored in our database for station/object K1PM-WX. If no packets are shown the sender has not sent any weather packets the latest 1 day(s).
| Time | Temp. | Humidity | Pressure | Rain* | Wind** | Luminosity | Snow |
|---|---|---|---|---|---|---|---|
| 1778045636 | 8.89° C | 99% | 1031 hPa | 2.54 mm | 0.89 m/s, 45° | - | - |
| 1778045336 | 9.44° C | 99% | 1031 hPa | 2.29 mm | 0.89 m/s, 23° | - | - |
| 1778045037 | 9.44° C | 99% | 1031 hPa | 2.79 mm | 1.79 m/s, 23° | - | - |
| 1778044736 | 9.44° C | 99% | 1032 hPa | 2.54 mm | 1.34 m/s, 45° | - | - |
| 1778044436 | 9.44° C | 99% | 1032 hPa | 3.05 mm | 0.45 m/s, 23° | - | - |
| 1778044136 | 9.44° C | 99% | 1032 hPa | 2.79 mm | 0 m/s | - | - |
| 1778043836 | 9.44° C | 99% | 1032 hPa | 3.05 mm | 0.45 m/s, 0° | - | - |
| 1778043537 | 9.44° C | 99% | 1032 hPa | 2.79 mm | 0.45 m/s, 338° | - | - |
| 1778043236 | 9.44° C | 99% | 1031 hPa | 2.79 mm | 0.45 m/s, 90° | - | - |
| 1778042936 | 9.44° C | 99% | 1031 hPa | 2.54 mm | 0.45 m/s, 0° | - | - |
| 1778042636 | 9.44° C | 99% | 1031 hPa | 2.54 mm | 0.45 m/s, 68° | - | - |
| 1778042336 | 9.44° C | 99% | 1031 hPa | 2.54 mm | 0.89 m/s, 90° | - | - |
| 1778042041 | 9.44° C | 99% | 1031 hPa | 2.03 mm | 0.45 m/s, 68° | - | - |
| 1778041736 | 9.44° C | 99% | 1031 hPa | 1.78 mm | 0.89 m/s, 90° | - | - |
| 1778041436 | 9.44° C | 99% | 1031 hPa | 1.27 mm | 0.89 m/s, 113° | - | - |
| 1778041137 | 9.44° C | 99% | 1031 hPa | 1.02 mm | 0.89 m/s, 90° | - | - |
| 1778040837 | 9.44° C | 99% | 1031 hPa | 1.02 mm | 0.89 m/s, 113° | - | - |
| 1778040536 | 9.44° C | 99% | 1031 hPa | 0.76 mm | 0.45 m/s, 113° | - | - |
| 1778040236 | 9.44° C | 99% | 1031 hPa | 0.76 mm | 0.89 m/s, 113° | - | - |
| 1778039936 | 9.44° C | 99% | 1031 hPa | 0.76 mm | 1.34 m/s, 113° | - | - |
| 1778039637 | 9.44° C | 99% | 1031 hPa | 1.27 mm | 0.89 m/s, 45° | - | - |
| 1778039337 | 9.44° C | 99% | 1031 hPa | 1.27 mm | 0.89 m/s, 68° | - | - |
| 1778039037 | 9.44° C | 99% | 1031 hPa | 1.52 mm | 1.34 m/s, 45° | - | - |
| 1778038737 | 9.44° C | 99% | 1031 hPa | 1.52 mm | 0.89 m/s, 45° | - | - |
| 1778038437 | 9.44° C | 99% | 1031 hPa | 1.78 mm | 0.89 m/s, 90° | - | - |
* Rain latest hour (hover to see other rain measurements)
** Current wind speed in m/s (hover to see current wind gust speed)